This is the latest recevied weather packets stored in our database for station/object KD4EG. If no packets are shown the sender has not sent any weather packets the latest 10 day(s).
| Time | Temp. | Humidity | Pressure | Rain* | Wind** | Luminosity | Snow |
|---|---|---|---|---|---|---|---|
| 1778075257 | 16.67° C | 87% | 1014.4 hPa | 0 mm | - | 106 W/m² | - |
| 1778074953 | 16.67° C | 88% | 1014.1 hPa | 0 mm | - | 71 W/m² | - |
| 1778074651 | 17.22° C | 88% | 1014 hPa | 0 mm | - | 62 W/m² | - |
| 1778074347 | 16.67° C | 87% | 1013.8 hPa | 1.78 mm | - | 80 W/m² | - |
| 1778074044 | 17.22° C | 89% | 1013.9 hPa | 1.78 mm | - | 91 W/m² | - |
| 1778073741 | 17.22° C | 88% | 1013.6 hPa | 0 mm | - | 59 W/m² | - |
| 1778073439 | 17.22° C | 87% | 1013.7 hPa | 0 mm | - | 41 W/m² | - |
| 1778073135 | 17.22° C | 86% | 1013.8 hPa | 0 mm | - | 43 W/m² | - |
| 1778072832 | 17.22° C | 86% | 1013.7 hPa | 0 mm | - | 61 W/m² | - |
| 1778072529 | 17.22° C | 86% | 1013.8 hPa | 0 mm | - | 63 W/m² | - |
| 1778072227 | 17.22° C | 87% | 1013.6 hPa | 0 mm | - | 59 W/m² | - |
| 1778071924 | 17.22° C | 87% | 1013.7 hPa | 0 mm | - | 41 W/m² | - |
| 1778071622 | 17.22° C | 87% | 1013.6 hPa | 0 mm | - | 49 W/m² | - |
| 1778071320 | 17.22° C | 86% | 1013.8 hPa | 0 mm | - | 47 W/m² | - |
| 1778071017 | 17.22° C | 85% | 1013.6 hPa | 0 mm | - | 40 W/m² | - |
| 1778070716 | 17.22° C | 86% | 1013.8 hPa | 0 mm | - | 35 W/m² | - |
| 1778070412 | 17.22° C | 84% | 1013.5 hPa | 0 mm | - | 30 W/m² | - |
| 1778070110 | 16.67° C | 84% | 1013.5 hPa | 0 mm | - | 55 W/m² | - |
| 1778069807 | 16.67° C | 85% | 1013.4 hPa | 0 mm | - | 77 W/m² | - |
| 1778069503 | 16.67° C | 86% | 1013.2 hPa | 0 mm | - | 88 W/m² | - |
| 1778069202 | 16.67° C | 87% | 1013.2 hPa | 0 mm | - | 77 W/m² | - |
| 1778068898 | 16.67° C | 87% | 1013 hPa | 0 mm | - | 48 W/m² | - |
| 1778068597 | 16.67° C | 87% | 1013.4 hPa | 0 mm | - | 52 W/m² | - |
| 1778068295 | 16.67° C | 87% | 1013.2 hPa | 0 mm | - | 50 W/m² | - |
| 1778067992 | 16.11° C | 87% | 1012.9 hPa | 0 mm | - | 31 W/m² | - |
* Rain latest hour (hover to see other rain measurements)
** Current wind speed in m/s (hover to see current wind gust speed)